Weather in Columbus

United States     32°28′13″N   84°59′35″W
temp.,
°C
wind,
m/s
gust,
m/s
humid.,
%
clouds,
%
prec.,
mm/h
press.,
hPa
HPBL,
m
24 may, tue
tue2423:00+21ssw1192100 0.0 101815
02:00+20wsw0095100 1.1 101712
05:00+20ssw1196100 0.0 101715
08:00+21wsw1194100 0.0 101850
11:00+22n1289100 0.1 1018232
14:00+28w125788 0.1 10181262
17:00+27se346890 0.9 1016827
20:00+25ne227726 1.3 101628
25 may, wed
wed2523:00+21se3896100 3.2 1017273
02:00+21ese3997100 3.7 1017322
05:00+20ese31096100 0.1 1017347
08:00+20e31094100 0.1 1019443
11:00+26se4665100 0.0 1019903
14:00+27s4774100 1.5 10181346
17:00+24s2687100 2.6 1017395
20:00+22ese2593100 4.9 1017163
26 may, thu
thu2623:00+20ese269388 0.0 1016110
02:00+20se3109466 0.3 1016282
05:00+20se2109783 0.8 1016386
08:00+20se3109655 1.1 1017470
11:00+26sse5117546 1.3 10161295
14:00+24sw61087100 4.9 10141265
17:00+18s2597100 20.7 1014361
20:00+18sse31198100 26.3 1014389
27 may, fri
fri2723:00+18ssw299953 0.0 1013377
02:00+19sse2899100 0.2 1012441
05:00+19sw279996 0.2 1011400
08:00+19wsw239682 0.3 1012299
11:00+21wsw238057 0.1 1012674
14:00+27wsw584213 0.1 10112381
17:00+27w674028 0.0 10102200
20:00+21nw48633 0.0 1011584
28 may, sat
sat2823:00+17nw28740 0.0 1012229
02:00+15nnw28820 0.0 1012243
05:00+14nnw25922 0.0 1011151
08:00+16wnw23830 0.0 1012206
11:00+22wnw355525 0.0 10131362
14:00+26w344243 0.0 10112065
17:00+26nw444372 0.0 10101812
20:00+21nnw47610 0.0 1011516